Flag for U.S.A. Weather past 2 weeks in Fairbanks, Alaska, U.S.A.

Now
36 °F

Partly sunny.


Feels Like: 33 °F
Forecast: 25 / 30 °F
Wind: 3 mph from West

Location: Wainwright U. S. Army Airfield

Current Time: Oct 21, 2014 at 5:06:00 PM

Latest Report: Oct 21, 2014 at 3:55 PM


Visibility: 85 mi

Pressure: 29.45 "Hg

Humidity: 65%

Dew point: 25 °F

Location of FairbanksLocation

Historic Weather in Fairbanks — Graph

°F

Fairbanks temperature yesterday

Maximum temperature yesterday: 37 °F (at 11:55 AM)
Minimum temperature yesterday: 32 °F (at 4:56 AM)
Average temperature yesterday: 35 °F

Past Weeks' High & Low Weather Summary

 TemperatureHumidityPressure
High38 °F (Oct 11, 3:56 PM)93% (Oct 7, 1:55 PM)30.29 "Hg (Oct 7, 1:55 PM)
Low12 °F (Oct 7, 6:55 AM)51% (Oct 9, 3:55 PM)29.10 "Hg (Oct 10, 4:56 AM)
Average27 °F75%29.61 "Hg
* Reported Oct 6 2:55 PM — Oct 21 2:55 PM, Fairbanks, Weather by CustomWeather, © 2014

Note: Actual official high and low records may vary slightly from our data, if they occured in-between our weather recording intervals... More about our weather records

Advertising

Fairbanks weather history for previous 24 hours

 ConditionsComfort  
Time TempWeatherWind HumidityBarometerVisibility
2:55 PM
Oct 21
36 °FPartly sunny.3 mph65%29.45 "Hg85 mi
1:55 PM32 °FPartly sunny.3 mph75%29.45 "Hg85 mi
12:55 PM30 °FPartly sunny.No wind80%29.44 "Hg85 mi
11:55 AM30 °FPartly sunny.3 mph80%29.43 "Hg25 mi
10:55 AM28 °FPartly sunny.No wind74%29.42 "Hg25 mi
9:55 AM27 °FPartly cloudy.No wind80%29.41 "Hg25 mi
8:55 AM27 °FPartly cloudy.2 mph80%29.40 "Hg25 mi
7:55 AM27 °FPartly cloudy.No wind80%29.39 "Hg10 mi
6:55 AM27 °FPartly cloudy.No wind80%29.37 "Hg10 mi
5:56 AM28 °FPassing clouds.No wind78%29.36 "Hg10 mi
4:56 AM29 °FPassing clouds.No wind72%29.34 "Hg10 mi
3:56 AM31 °FOvercast.No wind69%29.33 "Hg10 mi
2:56 AM32 °FClear.6 mph66%29.31 "Hg10 mi
1:56 AM31 °FPassing clouds.3 mph69%29.29 "Hg10 mi
12:56 AM32 °FClear.3 mph64%29.27 "Hg10 mi
11:56 PM
Oct 20
33 °FPassing clouds.6 mph63%29.25 "Hg10 mi
10:56 PM34 °FMostly cloudy.3 mph64%29.23 "Hg10 mi
9:56 PM34 °FOvercast.3 mph64%29.20 "Hg10 mi
8:55 PM36 °FPassing clouds.8 mph60%29.18 "Hg7 mi
7:55 PM36 °FPassing clouds.12 mph56%29.16 "Hg7 mi
6:55 PM36 °FPartly sunny.14 mph56%29.14 "Hg7 mi
5:55 PM36 °FPartly sunny.14 mph56%29.13 "Hg25 mi
Weather by CustomWeather, © 2014

See weather overviewHow to use our weather pages